Time,TemperatureF,DewpointF,PressureIn,WindDirection,WindDirectionDegrees,WindSpeedMPH,WindSpeedGustMPH,Humidity,HourlyPrecipIn,Conditions,Clouds,dailyrainin,SoftwareType,DateUTC
2013-04-16 00:00:00,57.3,47.2,30.12,SSW,202,5.0,11.0,69,0.00,,-RA,0.00,VWS V14.01,2013-04-16 04:00:00,
2013-04-16 00:30:00,56.8,47.1,30.13,SSW,202,5.0,12.0,70,0.00,,-RA,0.00,VWS V14.01,2013-04-16 04:30:00,
2013-04-16 01:00:00,56.2,46.9,30.14,SSW,202,4.0,12.0,71,0.00,,-RA,0.00,VWS V14.01,2013-04-16 05:00:00,
2013-04-16 01:30:00,55.9,47.4,30.13,SW,225,5.0,11.0,73,0.00,,-RA,0.00,VWS V14.01,2013-04-16 05:30:00,
2013-04-16 02:00:00,56.1,47.9,30.12,SSW,202,6.0,12.0,74,0.00,,-RA,0.00,VWS V14.01,2013-04-16 06:00:00,
2013-04-16 02:30:00,56.0,48.5,30.12,SSW,202,6.0,12.0,76,0.00,,-RA,0.00,VWS V14.01,2013-04-16 06:30:00,
2013-04-16 03:00:00,56.0,48.5,30.12,SW,225,4.0,12.0,76,0.00,,-RA,0.00,VWS V14.01,2013-04-16 07:00:00,
2013-04-16 03:30:00,56.2,48.8,30.12,SW,225,5.0,10.0,76,0.00,,-RA,0.00,VWS V14.01,2013-04-16 07:30:00,
2013-04-16 04:00:00,56.3,49.2,30.12,SSW,202,6.0,11.0,77,0.00,,-RA,0.00,VWS V14.01,2013-04-16 08:00:00,
2013-04-16 04:30:00,56.3,49.2,30.10,SW,225,6.0,12.0,77,0.00,,-RA,0.00,VWS V14.01,2013-04-16 08:30:00,
2013-04-16 05:00:00,55.9,49.2,30.09,SSW,202,5.0,11.0,78,0.00,,-RA,0.00,VWS V14.01,2013-04-16 09:00:00,
2013-04-16 05:30:00,55.3,48.9,30.08,SSW,202,5.0,11.0,79,0.00,,-RA,0.00,VWS V14.01,2013-04-16 09:30:00,
2013-04-16 06:00:00,55.7,49.0,30.09,SW,225,6.0,12.0,78,0.00,,-RA,0.00,VWS V14.01,2013-04-16 10:00:00,
2013-04-16 06:30:00,56.7,49.9,30.08,SW,225,8.0,17.0,78,0.00,,-RA,0.00,VWS V14.01,2013-04-16 10:30:00,
2013-04-16 07:00:00,56.8,50.0,30.08,SW,225,10.0,17.0,78,0.00,,-RA,0.00,VWS V14.01,2013-04-16 11:00:00,
2013-04-16 07:30:00,57.1,50.3,30.08,SW,225,11.0,18.0,78,0.00,,-RA,0.00,VWS V14.01,2013-04-16 11:30:00,
2013-04-16 08:00:00,57.6,50.5,30.08,SW,225,12.0,18.0,77,0.00,,-RA,0.00,VWS V14.01,2013-04-16 12:00:00,
2013-04-16 08:30:00,58.4,50.5,30.06,SW,225,12.0,19.0,75,0.00,,-RA,0.00,VWS V14.01,2013-04-16 12:30:00,
2013-04-16 09:00:00,59.2,52.0,30.06,SW,225,9.0,17.0,77,0.00,,-RA,0.00,VWS V14.01,2013-04-16 13:00:00,
2013-04-16 09:30:00,59.5,51.6,30.06,SW,225,10.0,18.0,75,0.00,,-RA,0.00,VWS V14.01,2013-04-16 13:30:00,
2013-04-16 10:00:00,60.1,51.8,30.06,SW,225,8.0,13.0,74,0.00,,-RA,0.00,VWS V14.01,2013-04-16 14:00:00,
2013-04-16 10:30:00,60.9,52.6,30.05,SW,225,7.0,12.0,74,0.00,,-RA,0.00,VWS V14.01,2013-04-16 14:30:00,
2013-04-16 11:00:00,61.2,52.9,30.06,SW,225,9.0,16.0,74,0.00,,-RA,0.00,VWS V14.01,2013-04-16 15:00:00,
2013-04-16 11:30:00,60.8,55.9,30.08,WSW,248,8.0,13.0,84,0.00,,-RA,0.00,VWS V14.01,2013-04-16 15:30:00,
2013-04-16 12:00:00,58.1,54.9,30.09,WSW,248,6.0,15.0,89,0.01,,-RA,0.01,VWS V14.01,2013-04-16 16:00:00,
2013-04-16 12:30:00,58.5,54.7,30.05,WSW,248,8.0,13.0,87,0.01,,-RA,0.01,VWS V14.01,2013-04-16 16:30:00,
2013-04-16 13:00:00,60.2,55.7,30.04,WSW,248,8.0,16.0,85,0.01,,-RA,0.01,VWS V14.01,2013-04-16 17:00:00,
2013-04-16 13:30:00,61.4,55.9,30.03,WSW,248,7.0,13.0,82,0.00,,-RA,0.01,VWS V14.01,2013-04-16 17:30:00,
2013-04-16 14:00:00,63.0,56.7,30.04,WSW,248,8.0,14.0,80,0.00,,-RA,0.01,VWS V14.01,2013-04-16 18:00:00,
2013-04-16 14:30:00,64.4,57.4,30.03,WSW,248,8.0,14.0,78,0.00,,-RA,0.01,VWS V14.01,2013-04-16 18:30:00,
2013-04-16 15:00:00,65.0,57.3,30.02,WSW,248,5.0,10.0,76,0.00,,-RA,0.01,VWS V14.01,2013-04-16 19:00:00,
2013-04-16 15:30:00,65.4,57.7,30.01,WSW,248,5.0,10.0,76,0.00,,-RA,0.01,VWS V14.01,2013-04-16 19:30:00,
2013-04-16 16:00:00,66.1,57.2,30.00,WSW,248,3.0,7.0,73,0.00,,-RA,0.01,VWS V14.01,2013-04-16 20:00:00,
2013-04-16 16:30:00,67.0,58.1,29.99,WSW,248,3.0,8.0,73,0.00,,-RA,0.01,VWS V14.01,2013-04-16 20:30:00,
2013-04-16 17:00:00,66.5,58.3,30.00,WSW,248,2.0,6.0,75,0.00,,-RA,0.01,VWS V14.01,2013-04-16 21:00:00,
2013-04-16 17:30:00,66.0,61.0,30.04,West,270,4.0,13.0,84,0.02,,-RA,0.03,VWS V14.01,2013-04-16 21:30:00,
2013-04-16 18:00:00,58.7,56.4,30.07,NW,315,3.0,13.0,92,0.03,,-RA,0.04,VWS V14.01,2013-04-16 22:00:00,
2013-04-16 18:30:00,56.5,54.5,30.09,WSW,248,1.0,4.0,93,0.04,,-RA,0.05,VWS V14.01,2013-04-16 22:30:00,
2013-04-16 19:00:00,55.4,53.4,30.11,WSW,248,1.0,5.0,93,0.03,,-RA,0.06,VWS V14.01,2013-04-16 23:00:00,
2013-04-16 19:30:00,52.9,51.5,30.11,NNW,338,1.0,4.0,95,0.02,,-RA,0.06,VWS V14.01,2013-04-16 23:30:00,
2013-04-16 20:00:00,52.9,51.5,30.14,ENE,68,0.0,3.0,95,0.01,,-RA,0.06,VWS V14.01,2013-04-17 00:00:00,
2013-04-16 20:30:00,52.9,49.8,30.17,NW,315,2.0,10.0,89,0.00,,-RA,0.06,VWS V14.01,2013-04-17 00:30:00,
2013-04-16 21:00:00,52.4,48.7,30.18,West,270,2.0,13.0,87,0.00,,-RA,0.06,VWS V14.01,2013-04-17 01:00:00,
2013-04-16 21:30:00,52.0,47.6,30.18,West,270,3.0,8.0,85,0.00,,-RA,0.06,VWS V14.01,2013-04-17 01:30:00,
2013-04-16 22:00:00,51.4,47.0,30.21,WSW,248,1.0,4.0,85,0.00,,-RA,0.06,VWS V14.01,2013-04-17 02:00:00,
2013-04-16 22:30:00,50.6,45.0,30.23,NNW,338,2.0,7.0,81,0.00,,-RA,0.06,VWS V14.01,2013-04-17 02:30:00,
2013-04-16 23:00:00,48.0,41.5,30.25,NNW,338,1.0,6.0,78,0.00,,-RA,0.06,VWS V14.01,2013-04-17 03:00:00,
2013-04-16 23:30:00,46.8,40.3,30.25,NNW,338,1.0,5.0,78,0.00,,-RA,0.06,VWS V14.01,2013-04-17 03:30:00,